Flag for Germany Weather past 2 weeks in Wermelskirchen, North Rhine-Westphalia, Germany

Now
66 °F

Sunny.


Feels Like: 66 °F
Forecast: 51 / 72 °F
Wind: 7 mph from North

Location: Koeln / Bonn

Current Time: Jul 31, 2015 at 4:23:19 PM

Latest Report: Jul 31, 2015 at 3:50 PM


Visibility: 10 mi

Pressure: 30.07 "Hg

Humidity: 43%

Dew point: 43 °F

Location of WermelskirchenLocation

Historic Weather in Wermelskirchen — Graph

°F

Wermelskirchen temperature yesterday

Maximum temperature yesterday: 66 °F (at 2:20 PM)
Minimum temperature yesterday: 48 °F (at 4:50 AM)
Average temperature yesterday: 55 °F

Past Weeks' High & Low Weather Summary

 TemperatureHumidityPressure
High95 °F (Jul 17, 3:20 PM)100% (Jul 31, 4:20 AM)30.15 "Hg (Jul 31, 4:20 AM)
Low48 °F (Jul 26, 3:50 AM)15% (Jul 17, 4:20 PM)29.56 "Hg (Jul 25, 6:50 AM)
Average66 °F69%29.89 "Hg
* Reported Jul 16 3:20 PM — Jul 31 3:20 PM, Wermelskirchen, Weather by CustomWeather, © 2015

Note: Actual official high and low records may vary slightly from our data, if they occured in-between our weather recording intervals... More about our weather records

Advertising

Wermelskirchen weather history for previous 24 hours

 ConditionsComfort  
Time TempWeatherWind HumidityBarometerVisibility
3:20 PM
Fri, Jul 31
66 °FPassing clouds.7 mph40%30.07 "HgN/A
2:50 PM66 °FSunny.6 mph43%30.09 "Hg10 mi
2:20 PM64 °FSunny.6 mph43%30.09 "Hg10 mi
1:50 PM64 °FSunny.5 mph43%30.12 "Hg10 mi
1:20 PM63 °FPartly sunny.5 mph45%30.12 "HgN/A
12:50 PM63 °FScattered clouds.5 mph49%30.12 "HgN/A
12:20 PM61 °FPassing clouds.2 mph55%30.15 "HgN/A
11:50 AM61 °FPassing clouds.2 mph55%30.15 "HgN/A
11:20 AM59 °FPassing clouds.3 mph59%30.15 "HgN/A
10:50 AM59 °FPassing clouds.6 mph59%30.15 "HgN/A
10:20 AM57 °FPassing clouds.5 mph67%30.15 "HgN/A
9:50 AM55 °FPassing clouds.3 mph77%30.15 "HgN/A
9:20 AM52 °FScattered clouds.3 mph88%30.15 "Hg4 mi
8:50 AM52 °FFog.5 mph88%30.15 "Hg3 mi
8:20 AM52 °FFog.3 mph88%30.15 "Hg2 mi
7:50 AM50 °FFog.3 mph94%30.15 "Hg2 mi
7:20 AM50 °FFog.2 mph94%30.15 "Hg1 mi
6:50 AM50 °FFog.2 mph94%30.12 "Hg1 mi
6:20 AM50 °FFog.1 mph94%30.12 "Hg1 mi
5:50 AM50 °FCool.3 mph94%30.12 "Hg1 mi
5:20 AM50 °FFog.2 mph94%30.12 "Hg1 mi
4:50 AM50 °FFog.3 mph94%30.12 "HgN/A
4:20 AM50 °FPassing clouds.2 mph100%30.12 "HgN/A
3:50 AM48 °FFog.1 mph94%30.12 "Hg6 mi
3:20 AM48 °FFog.2 mph94%30.12 "HgN/A
2:50 AM50 °FFog.1 mph88%30.12 "HgN/A
2:20 AM50 °FFog.2 mph94%30.12 "HgN/A
1:50 AM50 °FFog.2 mph94%30.12 "HgN/A
1:20 AM52 °FFog.2 mph88%30.12 "HgN/A
12:50 AM52 °FClear.1 mph94%30.12 "Hg10 mi
12:20 AM54 °FClear.3 mph88%30.09 "Hg10 mi
11:20 PM
Thu, Jul 30
54 °FClear.5 mph88%30.09 "Hg10 mi
10:50 PM54 °FClear.2 mph88%30.09 "Hg10 mi
10:20 PM54 °FClear.5 mph88%30.09 "Hg10 mi
9:50 PM54 °FBroken clouds.5 mph94%30.07 "HgN/A
9:20 PM55 °FRain showers. Partly sunny.9 mph88%30.07 "HgN/A
8:50 PM57 °FSprinkles. Broken clouds.5 mph88%30.07 "HgN/A
8:20 PM57 °FSprinkles. Broken clouds.7 mph82%30.07 "HgN/A
7:50 PM57 °FScattered showers. Broken clouds.2 mph82%30.04 "HgN/A
7:20 PM57 °FBroken clouds.2 mph82%30.04 "HgN/A
6:50 PM57 °FPartly sunny.3 mph82%30.04 "HgN/A
6:20 PM55 °FPartly sunny.3 mph82%30.04 "HgN/A
5:50 PM55 °FSprinkles. Partly sunny.7 mph82%30.04 "HgN/A
5:20 PM59 °FSprinkles. Partly sunny.9 mph72%30.04 "HgN/A
4:50 PM61 °FPartly sunny.8 mph68%30.01 "HgN/A
4:20 PM61 °FPartly sunny.7 mph72%30.01 "HgN/A
Weather by CustomWeather, © 2015

See weather overviewHow to use our weather pages